Powrót do katalogu

COSMOS 2251 DEB

AktywnyLEO
NORAD 33924·DEBRIS·🇷🇺 Russia

Wystrzelony Jun 16, 1993 z Plesetsk Cosmodrome

Loading…

Następne Przeloty (najbliższe 24 godziny)

TLE

ŚwieżeSource: Space-Track

Epoka: Sep 14, 2026, 06:13 UTC

1 33924U 93036ED  26257.25935321  .00000308  00000-0  30936-3 0  9999
2 33924  73.9132 187.2122 0401975 172.6477 188.0778 13.50528078864580

Śledź COSMOS 2251 DEB w czasie rzeczywistym z AllMySat

Download on the App Store